Showing default

SBIRS GEO 4 (USA 273), 41937

Orbit data source: Space-Track

SBIRS GEO 4 (USA 273), 41937 is a payload satellite owned by USAF AFSPC (US) in GEO that was launched on Sat, 21 Jan 2017 UTC via an ATLAS V 401 launch vehicle from the Air Force Eastern Test Range (AFETR). Payloads include a variety of satellites, spacecraft, and rockets equipped with specific instruments for various scientific and technological missions. These include communications satellites like Starlink; space stations such as the ISS; scientific satellites like the Hubble; Earth observation satellites from companies like Planet Labs, Umbra, and HawkEye 360; GPS; miniature CubeSats for education and research; and military/defense satellites.

Loading next visibility...
SBIRS GEO 4 (USA 273) details
Identifier
41937, 2017-004A
Orbit
GEO
Last TLE update22 hours ago
Origin
Flag of USUSAF AFSPC (US)
ManufacturerLMSS
MissionOperational Defense Early Warn
Bus & MotorA2100, LEROS 1C?
Mass~4,500 kg wet, ~2,500 kg dry
Launch date (UTC)
2017-01-21 (8 years ago)
Launch vehicle
ATLAS V 401
Launch site
Air Force Eastern Test Range (AFETR)
Object type
Payload
Rocket body
Debris
Shape & HBRBox + 2 Pan, 25 m
Radar Cross Section33.213 m², Large (>1 m²)

Expand to show TLE details & history

TLE from 22 hours ago
0 SBIRS GEO 4 (USA 273)
1 41937U 17004A   24360.50985463 -.00000118  00000-0  00000-0 0  9992
2 41937   1.4716  15.2119 0002379 258.9422 267.0976  1.00271698 29201
Epoch: 2024-12-25T12:14Z
Definitive object data (Epoch: 2024-12-25T12:14:11.44Z)
Latitude0.35422°
Longitude-96.82704°
Altitude35,786.57 km
Speed3.075 km/s
True Right ascension12h 04m 53s
True Declination0° 21' 14"
Sunlit
Object was in daylight at TLE epoch
Visualization TLE readout
Latitude1.06872°
Longitude-128.77393°
Altitude35,791.761 km
Speed3.074 km/s
Apparent Right ascension10h 01m 26s
Apparent Declination-5° 01' 49"
Sunlit
Object is in daylight
Visualization observer readout
Local Sidereal Time09:23:54
Azimuth166.897° S
Elevation44.23°
Doppler factor1
Orbital elements
Apogee altitude35,797.72 km
Perigee altitude35,777.657 km
Semi-major axis42,165.826 km
Eccentricity0.0002379
Inclination1.4716°
RAAN15.2119°
Arg. of periapsis258.9422°
True anomaly267.07037°
Mean anomaly267.0976°
Eccentric anomaly267.08399°
Mean motion0.25067 °/min
BSTARUnknown
Orbital period1436.15 mins
Loading historical data...
41937 neighbors
Authenticating...
Loading maneuver chart data...
Loading historical data...
Loading historical data...
Loading historical data...
Loading historical data...
Loading historical data...
Loading historical data...
Loading historical data...
Other satellites on launch #4 in the year 2017 (2017-01-21 UTC)

SBIRS GEO 4 (USA 273) Visibility forecast

Observer location: undefined°, undefined

Span
Click to sort rows by Start time (UTC) header in descending order
Start Az.
Max El. time (UTC)
Max El. Az.
Max El.
End time (UTC)
End Az.
1440 mins2024-12-26 10:02:47.163Z166.902° S2024-12-27 07:09:47.163Z166.775° S35.115°2024-12-27 10:02:47.163Z166.908° S
|